Location: Pinawa
(50.1500°N, 95.8830°W)
Time: 20:32:49
(UTC-05:00)

ISS - All Passes

Search period start: 22 August 2014 00:00
Search period end: 01 September 2014 00:00
Orbit: 413 x 419 km, 51.6° (Epoch: 22 August)

Date Brightness Start Highest point End Pass type
(mag) Time Alt. Az. Time Alt. Az. Time Alt. Az.
22 Aug - 14:27:36 10° S 14:29:46 16° SE 14:31:56 10° E daylight
22 Aug - 16:02:44 10° WSW 16:06:02 66° SSE 16:09:21 10° ENE daylight
22 Aug - 17:39:31 10° W 17:42:50 65° N 17:46:09 10° E daylight
22 Aug - 19:16:20 10° WNW 19:19:41 83° SSW 19:23:01 10° ESE daylight
22 Aug - 20:53:24 10° W 20:56:06 23° SW 20:58:47 10° SSE daylight
23 Aug - 13:40:40 10° SSE 13:41:27 11° SE 13:42:14 10° ESE daylight
23 Aug - 15:14:20 10° SW 15:17:32 47° SSE 15:20:46 10° ENE daylight
23 Aug - 16:50:54 10° W 16:54:14 70° N 16:57:34 10° ENE daylight
23 Aug - 18:27:46 10° WNW 18:31:07 80° NNE 18:34:27 10° E daylight
23 Aug - 20:04:38 10° W 20:07:41 33° SSW 20:10:43 10° SSE daylight
24 Aug - 14:26:02 10° SSW 14:29:03 33° SSE 14:32:05 10° E daylight
24 Aug - 16:02:17 10° W 16:05:37 80° NNW 16:08:58 10° ENE daylight
24 Aug - 17:39:10 10° WNW 17:42:30 70° N 17:45:50 10° E daylight
24 Aug - 19:15:58 10° WNW 19:19:12 47° SSW 19:22:25 10° SE daylight
24 Aug - 20:54:28 10° WSW 20:55:17 11° SW 20:56:06 10° SSW visible
25 Aug - 13:37:56 10° SSW 13:40:36 23° SE 13:43:17 10° E daylight
25 Aug - 15:13:41 10° WSW 15:17:01 83° SSE 15:20:21 10° ENE daylight
25 Aug - 16:50:32 10° W 16:53:52 65° N 16:57:11 10° E daylight
25 Aug - 18:27:20 10° WNW 18:30:39 66° SSW 18:33:57 10° ESE daylight
25 Aug - 20:04:44 10° W 20:06:55 16° SW 20:09:06 10° S daylight
26 Aug - 12:50:09 10° S 12:52:11 15° SE 12:54:13 10° E daylight
26 Aug - 14:25:08 10° WSW 14:28:25 63° SSE 14:31:43 10° ENE daylight
26 Aug - 16:01:52 10° W 16:05:12 66° N 16:08:31 10° E daylight
26 Aug - 17:38:42 10° WNW 17:42:03 86° SSW 17:45:23 10° ESE daylight
26 Aug - 19:15:43 10° W 19:18:29 24° SW 19:21:14 10° SSE daylight
27 Aug - 13:36:39 10° SW 13:39:50 44° SSE 13:43:02 10° E daylight
27 Aug - 15:13:11 10° W 15:16:30 71° N 15:19:51 10° ENE daylight
27 Aug - 16:50:03 10° WNW 16:53:23 78° NNE 16:56:44 10° E daylight
27 Aug - 18:26:54 10° W 18:29:58 35° SSW 18:33:02 10° SE daylight
28 Aug - 12:48:19 10° SSW 12:51:17 31° SSE 12:54:16 10° E daylight
28 Aug - 14:24:29 10° WSW 14:27:49 83° NNW 14:31:10 10° ENE daylight
28 Aug - 16:01:22 10° WNW 16:04:42 69° N 16:08:01 10° E daylight
28 Aug - 17:38:09 10° WNW 17:41:24 50° SSW 17:44:38 10° SE daylight
28 Aug - 19:16:19 10° WSW 19:17:31 12° SW 19:18:43 10° SSW daylight
29 Aug - 12:00:10 10° SSW 12:02:45 21° SE 12:05:21 10° E daylight
29 Aug - 13:35:48 10° WSW 13:39:08 80° SSE 13:42:28 10° ENE daylight
29 Aug - 15:12:39 10° W 15:15:58 65° N 15:19:17 10° E daylight
29 Aug - 16:49:26 10° WNW 16:52:45 70° SSW 16:56:04 10° ESE daylight
29 Aug - 18:26:45 10° W 18:29:03 18° SW 18:31:21 10° S daylight
30 Aug - 11:12:24 10° S 11:14:15 14° SE 11:16:07 10° ESE daylight
30 Aug - 12:47:11 10° WSW 12:50:28 59° SSE 12:53:45 10° ENE daylight
30 Aug - 14:23:53 10° W 14:27:13 66° N 14:30:32 10° E daylight
30 Aug - 16:00:43 10° WNW 16:04:04 89° SSW 16:07:24 10° ESE daylight
30 Aug - 17:37:42 10° W 17:40:31 26° SW 17:43:21 10° SSE daylight
31 Aug - 11:58:39 10° SW 12:01:48 42° SSE 12:04:58 10° E daylight
31 Aug - 13:35:07 10° W 13:38:27 73° N 13:41:47 10° ENE daylight
31 Aug - 15:11:59 10° WNW 15:15:19 76° N 15:18:39 10° E daylight
31 Aug - 16:48:49 10° W 16:51:55 37° SSW 16:55:01 10° SE daylight
